Year,Month,Day,Hour,Minute,Value (Times are PST for temperature in C)
2016,06,14,00,00,10.90
2016,06,14,00,01,10.90
2016,06,14,00,02,10.90
2016,06,14,00,03,10.90
2016,06,14,00,04,10.90
2016,06,14,00,05,10.90
2016,06,14,00,06,10.90
2016,06,14,00,07,10.90
2016,06,14,00,08,10.80
2016,06,14,00,09,10.80
2016,06,14,00,10,10.80
2016,06,14,00,11,10.80
2016,06,14,00,12,10.80
2016,06,14,00,13,10.80
2016,06,14,00,14,10.80
2016,06,14,00,15,10.80
2016,06,14,00,16,10.80
2016,06,14,00,17,10.80
2016,06,14,00,18,10.80
2016,06,14,00,19,10.80
2016,06,14,00,20,10.80
2016,06,14,00,21,10.80
2016,06,14,00,22,10.70
2016,06,14,00,23,10.70
2016,06,14,00,24,10.70
2016,06,14,00,25,10.70
2016,06,14,00,26,10.70
2016,06,14,00,27,10.70
2016,06,14,00,28,10.60
2016,06,14,00,29,10.60
2016,06,14,00,30,10.60
2016,06,14,00,31,10.60
2016,06,14,00,32,10.50
2016,06,14,00,33,10.50
2016,06,14,00,34,10.50
2016,06,14,00,35,10.50
2016,06,14,00,36,10.40
2016,06,14,00,37,10.40
2016,06,14,00,38,10.40
2016,06,14,00,39,10.30
2016,06,14,00,40,10.30
2016,06,14,00,41,10.30
2016,06,14,00,42,10.30
2016,06,14,00,43,10.30
2016,06,14,00,44,10.30
2016,06,14,00,45,10.30
2016,06,14,00,46,10.30
2016,06,14,00,47,10.30
2016,06,14,00,48,10.20
2016,06,14,00,49,10.20
2016,06,14,00,50,10.20
2016,06,14,00,51,10.20
2016,06,14,00,52,10.20
2016,06,14,00,53,10.20
2016,06,14,00,54,10.20
2016,06,14,00,55,10.10
2016,06,14,00,56,10.10
2016,06,14,00,57,10.10
2016,06,14,00,58,10.10
2016,06,14,00,59,10.10
2016,06,14,01,00,10.10
2016,06,14,01,01,10.00
2016,06,14,01,02,10.00
2016,06,14,01,03,10.00
2016,06,14,01,04,9.90
2016,06,14,01,05,9.90
2016,06,14,01,06,9.90
2016,06,14,01,07,9.80
2016,06,14,01,08,9.80
2016,06,14,01,09,9.80
2016,06,14,01,10,9.70
2016,06,14,01,11,9.70
2016,06,14,01,12,9.60
2016,06,14,01,13,9.60
2016,06,14,01,14,9.50
2016,06,14,01,15,9.50
2016,06,14,01,16,9.40
2016,06,14,01,17,9.30
2016,06,14,01,18,9.30
2016,06,14,01,19,9.30
2016,06,14,01,20,9.20
2016,06,14,01,21,9.20
2016,06,14,01,22,9.20
2016,06,14,01,23,9.20
2016,06,14,01,24,9.10
2016,06,14,01,25,9.10
2016,06,14,01,26,9.00
2016,06,14,01,27,9.00
2016,06,14,01,28,8.90
2016,06,14,01,29,8.90
2016,06,14,01,30,8.90
2016,06,14,01,31,8.90
2016,06,14,01,32,8.80
2016,06,14,01,33,8.80
2016,06,14,01,34,8.80
2016,06,14,01,35,8.80
2016,06,14,01,36,8.80
2016,06,14,01,37,8.80
2016,06,14,01,38,8.80
2016,06,14,01,39,8.80
2016,06,14,01,40,8.80
2016,06,14,01,41,8.80
2016,06,14,01,42,8.70
2016,06,14,01,43,8.70
2016,06,14,01,44,8.70
2016,06,14,01,45,8.60
2016,06,14,01,46,8.60
2016,06,14,01,47,8.60
2016,06,14,01,48,8.60
2016,06,14,01,49,8.60
2016,06,14,01,50,8.60
2016,06,14,01,51,8.60
2016,06,14,01,52,8.60
2016,06,14,01,53,8.60
2016,06,14,01,54,8.60
2016,06,14,01,55,8.60
2016,06,14,01,56,8.50
2016,06,14,01,57,8.50
2016,06,14,01,58,8.50
2016,06,14,01,59,8.40
2016,06,14,02,00,8.40
2016,06,14,02,01,8.40
2016,06,14,02,02,8.40
2016,06,14,02,03,8.40
2016,06,14,02,04,8.40
2016,06,14,02,05,8.40
2016,06,14,02,06,8.40
2016,06,14,02,07,8.40
2016,06,14,02,08,8.40
2016,06,14,02,09,8.40
2016,06,14,02,10,8.40
2016,06,14,02,11,8.30
2016,06,14,02,12,8.30
2016,06,14,02,13,8.30
2016,06,14,02,14,8.30
2016,06,14,02,15,8.30
2016,06,14,02,16,8.30
2016,06,14,02,17,8.30
2016,06,14,02,18,8.30
2016,06,14,02,19,8.30
2016,06,14,02,20,8.20
2016,06,14,02,21,8.20
2016,06,14,02,22,8.20
2016,06,14,02,23,8.20
2016,06,14,02,24,8.10
2016,06,14,02,25,8.10
2016,06,14,02,26,8.10
2016,06,14,02,27,8.00
2016,06,14,02,28,8.00
2016,06,14,02,29,8.00
2016,06,14,02,30,8.00
2016,06,14,02,31,8.00
2016,06,14,02,32,8.10
2016,06,14,02,33,8.10
2016,06,14,02,34,8.10
2016,06,14,02,35,8.10
2016,06,14,02,36,8.10
2016,06,14,02,37,8.10
2016,06,14,02,38,8.10
2016,06,14,02,39,8.10
2016,06,14,02,40,8.10
2016,06,14,02,41,8.10
2016,06,14,02,42,8.10
2016,06,14,02,43,8.10
2016,06,14,02,44,8.10
2016,06,14,02,45,8.20
2016,06,14,02,46,8.20
2016,06,14,02,47,8.20
2016,06,14,02,48,8.20
2016,06,14,02,49,8.20
2016,06,14,02,50,8.20
2016,06,14,02,51,8.20
2016,06,14,02,52,8.20
2016,06,14,02,53,8.20
2016,06,14,02,54,8.20
2016,06,14,02,55,8.20
2016,06,14,02,56,8.20
2016,06,14,02,57,8.20
2016,06,14,02,58,8.20
2016,06,14,02,59,8.20
2016,06,14,03,00,8.20
2016,06,14,03,01,8.20
2016,06,14,03,02,8.10
2016,06,14,03,03,8.10
2016,06,14,03,04,8.10
2016,06,14,03,05,8.10
2016,06,14,03,06,8.10
2016,06,14,03,07,8.10
2016,06,14,03,08,8.10
2016,06,14,03,09,8.00
2016,06,14,03,10,8.00
2016,06,14,03,11,8.00
2016,06,14,03,12,8.00
2016,06,14,03,13,8.00
2016,06,14,03,14,8.00
2016,06,14,03,15,8.00
2016,06,14,03,16,7.90
2016,06,14,03,17,7.90
2016,06,14,03,18,7.90
2016,06,14,03,19,7.90
2016,06,14,03,20,7.90
2016,06,14,03,21,7.90
2016,06,14,03,22,7.80
2016,06,14,03,23,7.80
2016,06,14,03,24,7.80
2016,06,14,03,25,7.80
2016,06,14,03,26,7.80
2016,06,14,03,27,7.80
2016,06,14,03,28,7.80
2016,06,14,03,29,7.80
2016,06,14,03,30,7.80
2016,06,14,03,31,7.80
2016,06,14,03,32,7.70
2016,06,14,03,33,7.70
2016,06,14,03,34,7.70
2016,06,14,03,35,7.70
2016,06,14,03,36,7.70
2016,06,14,03,37,7.60
2016,06,14,03,38,7.60
2016,06,14,03,39,7.60
2016,06,14,03,40,7.60
2016,06,14,03,41,7.60
2016,06,14,03,42,7.60
2016,06,14,03,43,7.60
2016,06,14,03,44,7.60
2016,06,14,03,45,7.60
2016,06,14,03,46,7.70
2016,06,14,03,47,7.70
2016,06,14,03,48,7.70
2016,06,14,03,49,7.70
2016,06,14,03,50,7.70
2016,06,14,03,51,7.70
2016,06,14,03,52,7.70
2016,06,14,03,53,7.70
2016,06,14,03,54,7.70
2016,06,14,03,55,7.70
2016,06,14,03,56,7.70
2016,06,14,03,57,7.70
2016,06,14,03,58,7.70
2016,06,14,03,59,7.70
2016,06,14,04,00,7.70
2016,06,14,04,01,7.70
2016,06,14,04,02,7.70
2016,06,14,04,03,7.70
2016,06,14,04,04,7.70
2016,06,14,04,05,7.70
2016,06,14,04,06,7.70
2016,06,14,04,07,7.70
2016,06,14,04,08,7.70
2016,06,14,04,09,7.70
2016,06,14,04,10,7.70
2016,06,14,04,11,7.70
2016,06,14,04,12,7.60
2016,06,14,04,13,7.60
2016,06,14,04,14,7.60
2016,06,14,04,15,7.60
2016,06,14,04,16,7.60
2016,06,14,04,17,7.60
2016,06,14,04,18,7.60
2016,06,14,04,19,7.60
2016,06,14,04,20,7.60
2016,06,14,04,21,7.60
2016,06,14,04,22,7.60
2016,06,14,04,23,7.60
2016,06,14,04,24,7.50
2016,06,14,04,25,7.50
2016,06,14,04,26,7.50
2016,06,14,04,27,7.50
2016,06,14,04,28,7.50
2016,06,14,04,29,7.50
2016,06,14,04,30,7.50
2016,06,14,04,31,7.40
2016,06,14,04,32,7.40
2016,06,14,04,33,7.40
2016,06,14,04,34,7.40
2016,06,14,04,35,7.40
2016,06,14,04,36,7.40
2016,06,14,04,37,7.40
2016,06,14,04,38,7.40
2016,06,14,04,39,7.30
2016,06,14,04,40,7.30
2016,06,14,04,41,7.30
2016,06,14,04,42,7.30
2016,06,14,04,43,7.20
2016,06,14,04,44,7.20
2016,06,14,04,45,7.20
2016,06,14,04,46,7.20
2016,06,14,04,47,7.20
2016,06,14,04,48,7.20
2016,06,14,04,49,7.20
2016,06,14,04,50,7.20
2016,06,14,04,51,7.20
2016,06,14,04,52,7.20
2016,06,14,04,53,7.20
2016,06,14,04,54,7.20
2016,06,14,04,55,7.20
2016,06,14,04,56,7.20
2016,06,14,04,57,7.20
2016,06,14,04,58,7.20
2016,06,14,04,59,7.20
2016,06,14,05,00,7.20
2016,06,14,05,01,7.20
2016,06,14,05,02,7.20
2016,06,14,05,03,7.20
2016,06,14,05,04,7.20
2016,06,14,05,05,7.20
2016,06,14,05,06,7.20
2016,06,14,05,07,7.20
2016,06,14,05,08,7.20
2016,06,14,05,09,7.20
2016,06,14,05,10,7.20
2016,06,14,05,11,7.20
2016,06,14,05,12,7.10
2016,06,14,05,13,7.10
2016,06,14,05,14,7.10
2016,06,14,05,15,7.00
2016,06,14,05,16,7.00
2016,06,14,05,17,7.00
2016,06,14,05,18,7.00
2016,06,14,05,19,7.00
2016,06,14,05,20,7.00
2016,06,14,05,21,7.00
2016,06,14,05,22,7.00
2016,06,14,05,23,7.00
2016,06,14,05,24,7.00
2016,06,14,05,25,7.00
2016,06,14,05,26,7.00
2016,06,14,05,27,7.10
2016,06,14,05,28,7.10
2016,06,14,05,29,7.10
2016,06,14,05,30,7.10
2016,06,14,05,31,7.10
2016,06,14,05,32,7.20
2016,06,14,05,33,7.20
2016,06,14,05,34,7.20
2016,06,14,05,35,7.20
2016,06,14,05,36,7.20
2016,06,14,05,37,7.30
2016,06,14,05,38,7.30
2016,06,14,05,39,7.30
2016,06,14,05,40,7.30
2016,06,14,05,41,7.30
2016,06,14,05,42,7.30
2016,06,14,05,43,7.30
2016,06,14,05,44,7.30
2016,06,14,05,45,7.30
2016,06,14,05,46,7.30
2016,06,14,05,47,7.30
2016,06,14,05,48,7.30
2016,06,14,05,49,7.30
2016,06,14,05,50,7.30
2016,06,14,05,51,7.30
2016,06,14,05,52,7.30
2016,06,14,05,53,7.30
2016,06,14,05,54,7.30
2016,06,14,05,55,7.30
2016,06,14,05,56,7.40
2016,06,14,05,57,7.40
2016,06,14,05,58,7.40
2016,06,14,05,59,7.40
2016,06,14,06,00,7.40
2016,06,14,06,01,7.40
2016,06,14,06,02,7.50
2016,06,14,06,03,7.50
2016,06,14,06,04,7.60
2016,06,14,06,05,7.60
2016,06,14,06,06,7.60
2016,06,14,06,07,7.60
2016,06,14,06,08,7.70
2016,06,14,06,09,7.70
2016,06,14,06,10,7.70
2016,06,14,06,11,7.70
2016,06,14,06,12,7.70
2016,06,14,06,13,7.70
2016,06,14,06,14,7.70
2016,06,14,06,15,7.70
2016,06,14,06,16,7.70
2016,06,14,06,17,7.70
2016,06,14,06,18,7.70
2016,06,14,06,19,7.70
2016,06,14,06,20,7.80
2016,06,14,06,21,7.80
2016,06,14,06,22,7.80
2016,06,14,06,23,7.80
2016,06,14,06,24,7.90
2016,06,14,06,25,7.90
2016,06,14,06,26,7.90
2016,06,14,06,27,7.90
2016,06,14,06,28,8.00
2016,06,14,06,29,8.00
2016,06,14,06,30,8.00
2016,06,14,06,31,8.00
2016,06,14,06,32,8.10
2016,06,14,06,33,8.10
2016,06,14,06,34,8.10
2016,06,14,06,35,8.10
2016,06,14,06,36,8.20
2016,06,14,06,37,8.20
2016,06,14,06,38,8.20
2016,06,14,06,39,8.20
2016,06,14,06,40,8.30
2016,06,14,06,41,8.30
2016,06,14,06,42,8.40
2016,06,14,06,43,8.50
2016,06,14,06,44,8.50
2016,06,14,06,45,8.50
2016,06,14,06,46,8.50
2016,06,14,06,47,8.50
2016,06,14,06,48,8.50
2016,06,14,06,49,8.50
2016,06,14,06,50,8.50
2016,06,14,06,51,8.50
2016,06,14,06,52,8.50
2016,06,14,06,53,8.50
2016,06,14,06,54,8.60
2016,06,14,06,55,8.60
2016,06,14,06,56,8.60
2016,06,14,06,57,8.60
2016,06,14,06,58,8.60
2016,06,14,06,59,8.70
2016,06,14,07,00,8.70
2016,06,14,07,01,8.70
2016,06,14,07,02,8.80
2016,06,14,07,03,8.80
2016,06,14,07,04,8.80
2016,06,14,07,05,8.90
2016,06,14,07,06,8.90
2016,06,14,07,07,9.00
2016,06,14,07,08,9.10
2016,06,14,07,09,9.10
2016,06,14,07,10,9.10
2016,06,14,07,11,9.20
2016,06,14,07,12,9.20
2016,06,14,07,13,9.20
2016,06,14,07,14,9.20
2016,06,14,07,15,9.30
2016,06,14,07,16,9.30
2016,06,14,07,17,9.40
2016,06,14,07,18,9.40
2016,06,14,07,19,9.50
2016,06,14,07,20,9.60
2016,06,14,07,21,9.70
2016,06,14,07,22,9.80
2016,06,14,07,23,9.80
2016,06,14,07,24,9.90
2016,06,14,07,25,10.00
2016,06,14,07,26,10.00
2016,06,14,07,27,10.10
2016,06,14,07,28,10.10
2016,06,14,07,29,10.20
2016,06,14,07,30,10.20
2016,06,14,07,31,10.20
2016,06,14,07,32,10.30
2016,06,14,07,33,10.30
2016,06,14,07,34,10.30
2016,06,14,07,35,10.40
2016,06,14,07,36,10.40
2016,06,14,07,37,10.40
2016,06,14,07,38,10.40
2016,06,14,07,39,10.40
2016,06,14,07,40,10.50
2016,06,14,07,41,10.50
2016,06,14,07,42,10.60
2016,06,14,07,43,10.60
2016,06,14,07,44,10.70
2016,06,14,07,45,10.70
2016,06,14,07,46,10.70
2016,06,14,07,47,10.80
2016,06,14,07,48,10.80
2016,06,14,07,49,10.80
2016,06,14,07,50,10.80
2016,06,14,07,51,10.90
2016,06,14,07,52,10.90
2016,06,14,07,53,11.00
2016,06,14,07,54,11.10
2016,06,14,07,55,11.10
2016,06,14,07,56,11.20
2016,06,14,07,57,11.20
2016,06,14,07,58,11.30
2016,06,14,07,59,11.30
2016,06,14,08,00,11.40
2016,06,14,08,01,11.50
2016,06,14,08,02,11.50
2016,06,14,08,03,11.50
2016,06,14,08,04,11.60
2016,06,14,08,05,11.60
2016,06,14,08,06,11.60
2016,06,14,08,07,11.60
2016,06,14,08,08,11.60
2016,06,14,08,09,11.70
2016,06,14,08,10,11.70
2016,06,14,08,11,11.70
2016,06,14,08,12,11.70
2016,06,14,08,13,11.80
2016,06,14,08,14,11.80
2016,06,14,08,15,11.90
2016,06,14,08,16,11.90
2016,06,14,08,17,11.90
2016,06,14,08,18,11.90
2016,06,14,08,19,11.90
2016,06,14,08,20,11.90
2016,06,14,08,21,11.90
2016,06,14,08,22,12.00
2016,06,14,08,23,12.00
2016,06,14,08,24,12.00
2016,06,14,08,25,12.10
2016,06,14,08,26,12.10
2016,06,14,08,27,12.10
2016,06,14,08,28,12.20
2016,06,14,08,29,12.20
2016,06,14,08,30,12.30
2016,06,14,08,31,12.30
2016,06,14,08,32,12.40
2016,06,14,08,33,12.40
2016,06,14,08,34,12.40
2016,06,14,08,35,12.50
2016,06,14,08,36,12.50
2016,06,14,08,37,12.60
2016,06,14,08,38,12.70
2016,06,14,08,39,12.70
2016,06,14,08,40,12.80
2016,06,14,08,41,12.80
2016,06,14,08,42,12.80
2016,06,14,08,43,12.90
2016,06,14,08,44,12.90
2016,06,14,08,45,13.00
2016,06,14,08,46,13.00
2016,06,14,08,47,13.10
2016,06,14,08,48,13.20
2016,06,14,08,49,13.30
2016,06,14,08,50,13.40
2016,06,14,08,51,13.40
2016,06,14,08,52,13.40
2016,06,14,08,53,13.50
2016,06,14,08,54,13.60
2016,06,14,08,55,13.60
2016,06,14,08,56,13.60
2016,06,14,08,57,13.60
2016,06,14,08,58,13.50
2016,06,14,08,59,13.50
2016,06,14,09,00,13.50
2016,06,14,09,01,13.50
2016,06,14,09,02,13.40
2016,06,14,09,03,13.50
2016,06,14,09,04,13.40
2016,06,14,09,05,13.40
2016,06,14,09,06,13.40
2016,06,14,09,07,13.40
2016,06,14,09,08,13.40
2016,06,14,09,09,13.40
2016,06,14,09,10,13.40
2016,06,14,09,11,13.40
2016,06,14,09,12,13.40
2016,06,14,09,13,13.50
2016,06,14,09,14,13.50
2016,06,14,09,15,13.60
2016,06,14,09,16,13.60
2016,06,14,09,17,13.70
2016,06,14,09,18,13.70
2016,06,14,09,19,13.70
2016,06,14,09,20,13.80
2016,06,14,09,21,13.80
2016,06,14,09,22,13.90
2016,06,14,09,23,13.90
2016,06,14,09,24,13.80
2016,06,14,09,25,13.80
2016,06,14,09,26,13.90
2016,06,14,09,27,14.00
2016,06,14,09,28,14.10
2016,06,14,09,29,14.10
2016,06,14,09,30,14.20
2016,06,14,09,31,14.20
2016,06,14,09,32,14.30
2016,06,14,09,33,14.30
2016,06,14,09,34,14.30
2016,06,14,09,35,14.30
2016,06,14,09,36,14.40
2016,06,14,09,37,14.40
2016,06,14,09,38,14.40
2016,06,14,09,39,14.40
2016,06,14,09,40,14.30
2016,06,14,09,41,14.10
2016,06,14,09,42,14.10
2016,06,14,09,43,14.20
2016,06,14,09,44,14.20
2016,06,14,09,45,14.20
2016,06,14,09,46,14.20
2016,06,14,09,47,14.20
2016,06,14,09,48,14.20
2016,06,14,09,49,14.40
2016,06,14,09,50,14.50
2016,06,14,09,51,14.60
2016,06,14,09,52,14.70
2016,06,14,09,53,14.70
2016,06,14,09,54,14.70
2016,06,14,09,55,14.70
2016,06,14,09,56,14.50
2016,06,14,09,57,14.40
2016,06,14,09,58,14.40
2016,06,14,09,59,14.30
2016,06,14,10,00,14.20
2016,06,14,10,01,14.10
2016,06,14,10,02,14.00
2016,06,14,10,03,13.90
2016,06,14,10,04,13.80
2016,06,14,10,05,13.70
2016,06,14,10,06,13.60
2016,06,14,10,07,13.50
2016,06,14,10,08,13.30
2016,06,14,10,09,13.30
2016,06,14,10,10,13.20
2016,06,14,10,11,13.20
2016,06,14,10,12,13.10
2016,06,14,10,13,13.10
2016,06,14,10,14,13.00
2016,06,14,10,15,13.00
2016,06,14,10,16,13.00
2016,06,14,10,17,12.90
2016,06,14,10,18,12.80
2016,06,14,10,19,12.70
2016,06,14,10,20,12.60
2016,06,14,10,21,12.60
2016,06,14,10,22,12.50
2016,06,14,10,23,12.40
2016,06,14,10,24,12.40
2016,06,14,10,25,12.40
2016,06,14,10,26,12.30
2016,06,14,10,27,12.30
2016,06,14,10,28,12.10
2016,06,14,10,29,12.00
2016,06,14,10,30,11.90
2016,06,14,10,31,11.90
2016,06,14,10,32,11.90
2016,06,14,10,33,11.80
2016,06,14,10,34,11.80
2016,06,14,10,35,11.80
2016,06,14,10,36,11.70
2016,06,14,10,37,11.60
2016,06,14,10,38,11.60
2016,06,14,10,39,11.50
2016,06,14,10,40,11.40
2016,06,14,10,41,11.40
2016,06,14,10,42,11.40
2016,06,14,10,43,11.30
2016,06,14,10,44,11.30
2016,06,14,10,45,11.30
2016,06,14,10,46,11.20
2016,06,14,10,47,11.20
2016,06,14,10,48,11.20
2016,06,14,10,49,11.20
2016,06,14,10,50,11.20
2016,06,14,10,51,11.30
2016,06,14,10,52,11.30
2016,06,14,10,53,11.30
2016,06,14,10,54,11.30
2016,06,14,10,55,11.40
2016,06,14,10,56,11.40
2016,06,14,10,57,11.40
2016,06,14,10,58,11.40
2016,06,14,10,59,11.30
2016,06,14,11,00,11.40
2016,06,14,11,01,11.40
2016,06,14,11,02,11.30
2016,06,14,11,03,11.30
2016,06,14,11,04,11.40
2016,06,14,11,05,11.40
2016,06,14,11,06,11.40
2016,06,14,11,07,11.30
2016,06,14,11,08,11.30
2016,06,14,11,09,11.30
2016,06,14,11,10,11.30
2016,06,14,11,11,11.20
2016,06,14,11,12,11.20
2016,06,14,11,13,11.10
2016,06,14,11,14,11.10
2016,06,14,11,15,11.00
2016,06,14,11,16,10.90
2016,06,14,11,17,10.90
2016,06,14,11,18,10.80
2016,06,14,11,19,10.70
2016,06,14,11,20,10.70
2016,06,14,11,21,10.60
2016,06,14,11,22,10.60
2016,06,14,11,23,10.60
2016,06,14,11,24,10.50
2016,06,14,11,25,10.50
2016,06,14,11,26,10.50
2016,06,14,11,27,10.50
2016,06,14,11,28,10.50
2016,06,14,11,29,10.50
2016,06,14,11,30,10.50
2016,06,14,11,31,10.50
2016,06,14,11,32,10.50
2016,06,14,11,33,10.50
2016,06,14,11,34,10.50
2016,06,14,11,35,10.40
2016,06,14,11,36,10.40
2016,06,14,11,37,10.40
2016,06,14,11,38,10.40
2016,06,14,11,39,10.40
2016,06,14,11,40,10.40
2016,06,14,11,41,10.40
2016,06,14,11,42,10.40
2016,06,14,11,43,10.40
2016,06,14,11,44,10.40
2016,06,14,11,45,10.40
2016,06,14,11,46,10.40
2016,06,14,11,47,10.40
2016,06,14,11,48,10.50
2016,06,14,11,49,10.50
2016,06,14,11,50,10.50
2016,06,14,11,51,10.50
2016,06,14,11,52,10.40
2016,06,14,11,53,10.40
2016,06,14,11,54,10.40
2016,06,14,11,55,10.40
2016,06,14,11,56,10.40
2016,06,14,11,57,10.40
2016,06,14,11,58,10.30
2016,06,14,11,59,10.30
2016,06,14,12,00,10.30
2016,06,14,12,01,10.30
2016,06,14,12,02,10.30
2016,06,14,12,03,10.30
2016,06,14,12,04,10.30
2016,06,14,12,05,10.30
2016,06,14,12,06,10.30
2016,06,14,12,07,10.30
2016,06,14,12,08,10.30
2016,06,14,12,09,10.30
2016,06,14,12,10,10.30
2016,06,14,12,11,10.30
2016,06,14,12,12,10.40
2016,06,14,12,13,10.40
2016,06,14,12,14,10.50
2016,06,14,12,15,10.50
2016,06,14,12,16,10.60
2016,06,14,12,17,10.60
2016,06,14,12,18,10.70
2016,06,14,12,19,10.70
2016,06,14,12,20,10.70
2016,06,14,12,21,10.70
2016,06,14,12,22,10.70
2016,06,14,12,23,10.70
2016,06,14,12,24,10.70
2016,06,14,12,25,10.70
2016,06,14,12,26,10.70
2016,06,14,12,27,10.70
2016,06,14,12,28,10.70
2016,06,14,12,29,10.70
2016,06,14,12,30,10.70
2016,06,14,12,31,10.60
2016,06,14,12,32,10.60
2016,06,14,12,33,10.60
2016,06,14,12,34,10.60
2016,06,14,12,35,10.60
2016,06,14,12,36,10.60
2016,06,14,12,37,10.60
2016,06,14,12,38,10.70
2016,06,14,12,39,10.70
2016,06,14,12,40,10.70
2016,06,14,12,41,10.70
2016,06,14,12,42,10.80
2016,06,14,12,43,10.80
2016,06,14,12,44,10.80
2016,06,14,12,45,10.80
2016,06,14,12,46,10.80
2016,06,14,12,47,10.90
2016,06,14,12,48,10.90
2016,06,14,12,49,10.90
2016,06,14,12,50,10.90
2016,06,14,12,51,10.90
2016,06,14,12,52,10.90
2016,06,14,12,53,11.00
2016,06,14,12,54,11.10
2016,06,14,12,55,11.20
2016,06,14,12,56,11.30
2016,06,14,12,57,11.30
2016,06,14,12,58,11.30
2016,06,14,12,59,11.40
2016,06,14,13,00,11.40
2016,06,14,13,01,11.40
2016,06,14,13,02,11.40
2016,06,14,13,03,11.50
2016,06,14,13,04,11.50
2016,06,14,13,05,11.60
2016,06,14,13,06,11.70
2016,06,14,13,07,11.90
2016,06,14,13,08,11.90
2016,06,14,13,09,11.90
2016,06,14,13,10,11.90
2016,06,14,13,11,12.00
2016,06,14,13,12,12.10
2016,06,14,13,13,12.10
2016,06,14,13,14,12.10
2016,06,14,13,15,12.10
2016,06,14,13,16,12.10
2016,06,14,13,17,12.10
2016,06,14,13,18,12.20
2016,06,14,13,19,12.40
2016,06,14,13,20,12.40
2016,06,14,13,21,12.40
2016,06,14,13,22,12.40
2016,06,14,13,23,12.40
2016,06,14,13,24,12.40
2016,06,14,13,25,12.40
2016,06,14,13,26,12.30
2016,06,14,13,27,12.30
2016,06,14,13,28,12.30
2016,06,14,13,29,12.40
2016,06,14,13,30,12.40
2016,06,14,13,31,12.30
2016,06,14,13,32,12.20
2016,06,14,13,33,12.30
2016,06,14,13,34,12.40
2016,06,14,13,35,12.40
2016,06,14,13,36,12.20
2016,06,14,13,37,12.10
2016,06,14,13,38,12.00
2016,06,14,13,39,11.90
2016,06,14,13,40,11.90
2016,06,14,13,41,12.00
2016,06,14,13,42,11.90
2016,06,14,13,43,12.00
2016,06,14,13,44,12.10
2016,06,14,13,45,12.10
2016,06,14,13,46,12.10
2016,06,14,13,47,12.10
2016,06,14,13,48,12.20
2016,06,14,13,49,12.20
2016,06,14,13,50,12.20
2016,06,14,13,51,12.30
2016,06,14,13,52,12.30
2016,06,14,13,53,12.20
2016,06,14,13,54,12.10
2016,06,14,13,55,12.10
2016,06,14,13,56,12.20
2016,06,14,13,57,12.20
2016,06,14,13,58,12.20
2016,06,14,13,59,12.30
2016,06,14,14,00,12.30
2016,06,14,14,01,12.40
2016,06,14,14,02,12.40
2016,06,14,14,03,12.40
2016,06,14,14,04,12.50
2016,06,14,14,05,12.40
2016,06,14,14,06,12.40
2016,06,14,14,07,12.30
2016,06,14,14,08,12.30
2016,06,14,14,09,12.30
2016,06,14,14,10,12.30
2016,06,14,14,11,12.30
2016,06,14,14,12,12.30
2016,06,14,14,13,12.40
2016,06,14,14,14,12.40
2016,06,14,14,15,12.50
2016,06,14,14,16,12.60
2016,06,14,14,17,12.70
2016,06,14,14,18,12.70
2016,06,14,14,19,12.70
2016,06,14,14,20,12.80
2016,06,14,14,21,12.80
2016,06,14,14,22,12.80
2016,06,14,14,23,12.80
2016,06,14,14,24,12.80
2016,06,14,14,25,12.70
2016,06,14,14,26,12.70
2016,06,14,14,27,12.80
2016,06,14,14,28,12.80
2016,06,14,14,29,12.80
2016,06,14,14,30,12.80
2016,06,14,14,31,12.70
2016,06,14,14,32,12.70
2016,06,14,14,33,12.70
2016,06,14,14,34,12.60
2016,06,14,14,35,12.50
2016,06,14,14,36,12.40
2016,06,14,14,37,12.40
2016,06,14,14,38,12.40
2016,06,14,14,39,12.50
2016,06,14,14,40,12.50
2016,06,14,14,41,12.50
2016,06,14,14,42,12.60
2016,06,14,14,43,12.70
2016,06,14,14,44,12.70
2016,06,14,14,45,12.80
2016,06,14,14,46,12.70
2016,06,14,14,47,12.70
2016,06,14,14,48,12.70
2016,06,14,14,49,12.70
2016,06,14,14,50,12.70
2016,06,14,14,51,12.70
2016,06,14,14,52,12.70
2016,06,14,14,53,12.70
2016,06,14,14,54,12.70
2016,06,14,14,55,12.70
2016,06,14,14,56,12.70
2016,06,14,14,57,12.70
2016,06,14,14,58,12.80
2016,06,14,14,59,12.80
2016,06,14,15,00,12.70
2016,06,14,15,01,12.60
2016,06,14,15,02,12.60
2016,06,14,15,03,12.50
2016,06,14,15,04,12.50
2016,06,14,15,05,12.60
2016,06,14,15,06,12.50
2016,06,14,15,07,12.50
2016,06,14,15,08,12.50
2016,06,14,15,09,12.50
2016,06,14,15,10,12.50
2016,06,14,15,11,12.50
2016,06,14,15,12,12.50
2016,06,14,15,13,12.40
2016,06,14,15,14,12.40
2016,06,14,15,15,12.40
2016,06,14,15,16,12.40
2016,06,14,15,17,12.30
2016,06,14,15,18,12.30
2016,06,14,15,19,12.30
2016,06,14,15,20,12.30
2016,06,14,15,21,12.30
2016,06,14,15,22,12.30
2016,06,14,15,23,12.20
2016,06,14,15,24,12.10
2016,06,14,15,25,12.10
2016,06,14,15,26,12.00
2016,06,14,15,27,12.00
2016,06,14,15,28,11.90
2016,06,14,15,29,11.90
2016,06,14,15,30,11.90
2016,06,14,15,31,11.80
2016,06,14,15,32,11.90
2016,06,14,15,33,11.90
2016,06,14,15,34,11.90
2016,06,14,15,35,11.90
2016,06,14,15,36,11.90
2016,06,14,15,37,11.90
2016,06,14,15,38,11.80
2016,06,14,15,39,11.80
2016,06,14,15,40,11.80
2016,06,14,15,41,11.80
2016,06,14,15,42,11.80
2016,06,14,15,43,11.70
2016,06,14,15,44,11.70
2016,06,14,15,45,11.80
2016,06,14,15,46,11.80
2016,06,14,15,47,11.80
2016,06,14,15,48,11.80
2016,06,14,15,49,11.80
2016,06,14,15,50,11.80
2016,06,14,15,51,11.80
2016,06,14,15,52,11.80
2016,06,14,15,53,11.90
2016,06,14,15,54,11.90
2016,06,14,15,55,11.90
2016,06,14,15,56,11.90
2016,06,14,15,57,11.90
2016,06,14,15,58,11.90
2016,06,14,15,59,11.90
2016,06,14,16,00,12.00
2016,06,14,16,01,12.00
2016,06,14,16,02,12.10
2016,06,14,16,03,12.10
2016,06,14,16,04,12.10
2016,06,14,16,05,12.20
2016,06,14,16,06,12.20
2016,06,14,16,07,12.30
2016,06,14,16,08,12.30
2016,06,14,16,09,12.30
2016,06,14,16,10,12.30
2016,06,14,16,11,12.30
2016,06,14,16,12,12.30
2016,06,14,16,13,12.30
2016,06,14,16,14,12.30
2016,06,14,16,15,12.30
2016,06,14,16,16,12.30
2016,06,14,16,17,12.30
2016,06,14,16,18,12.30
2016,06,14,16,19,12.30
2016,06,14,16,20,12.30
2016,06,14,16,21,12.30
2016,06,14,16,22,12.20
2016,06,14,16,23,12.20
2016,06,14,16,24,12.10
2016,06,14,16,25,12.00
2016,06,14,16,26,11.90
2016,06,14,16,27,11.90
2016,06,14,16,28,11.80
2016,06,14,16,29,11.80
2016,06,14,16,30,11.70
2016,06,14,16,31,11.70
2016,06,14,16,32,11.70
2016,06,14,16,33,11.70
2016,06,14,16,34,11.60
2016,06,14,16,35,11.60
2016,06,14,16,36,11.60
2016,06,14,16,37,11.60
2016,06,14,16,38,11.60
2016,06,14,16,39,11.60
2016,06,14,16,40,11.60
2016,06,14,16,41,11.60
2016,06,14,16,42,11.60
2016,06,14,16,43,11.60
2016,06,14,16,44,11.60
2016,06,14,16,45,11.60
2016,06,14,16,46,11.70
2016,06,14,16,47,11.80
2016,06,14,16,48,11.80
2016,06,14,16,49,11.90
2016,06,14,16,50,11.90
2016,06,14,16,51,11.90
2016,06,14,16,52,12.00
2016,06,14,16,53,12.10
2016,06,14,16,54,12.00
2016,06,14,16,55,12.00
2016,06,14,16,56,11.90
2016,06,14,16,57,11.90
2016,06,14,16,58,11.80
2016,06,14,16,59,11.80
2016,06,14,17,00,11.80
2016,06,14,17,01,11.80
2016,06,14,17,02,11.80
2016,06,14,17,03,11.80
2016,06,14,17,04,11.80
2016,06,14,17,05,11.80
2016,06,14,17,06,11.80
2016,06,14,17,07,11.80
2016,06,14,17,08,11.80
2016,06,14,17,09,11.80
2016,06,14,17,10,11.90
2016,06,14,17,11,11.90
2016,06,14,17,12,11.90
2016,06,14,17,13,11.90
2016,06,14,17,14,12.00
2016,06,14,17,15,12.00
2016,06,14,17,16,12.00
2016,06,14,17,17,11.90
2016,06,14,17,18,12.00
2016,06,14,17,19,12.00
2016,06,14,17,20,12.10
2016,06,14,17,21,12.10
2016,06,14,17,22,12.20
2016,06,14,17,23,12.20
2016,06,14,17,24,12.20
2016,06,14,17,25,12.20
2016,06,14,17,26,12.20
2016,06,14,17,27,12.20
2016,06,14,17,28,12.20
2016,06,14,17,29,12.30
2016,06,14,17,30,12.30
2016,06,14,17,31,12.30
2016,06,14,17,32,12.40
2016,06,14,17,33,12.40
2016,06,14,17,34,12.40
2016,06,14,17,35,12.40
2016,06,14,17,36,12.50